Weather History for San Carlos, CA

Change the Weather History Date:

Sunday, November 17, 2013

  Actual Average Record
Temperature  
Mean Temperature 52 °F -  
Max Temperature 59 °F 65 °F 76 °F (1949)
Min Temperature 46 °F 44 °F 29 °F (1961)
Degree Days  
Heating Degree Days 12    
Growing Degree Days 2 (Base 50)    
Moisture  
Dew Point 45 °F    
Average Humidity 82    
Maximum Humidity 93    
Minimum Humidity 55    
Precipitation  
Precipitation 0.00 in - - ()
Sea Level Pressure  
Sea Level Pressure 30.02 in    
Wind  
Wind Speed 1 mph (SW)    
Max Wind Speed 10 mph    
Max Gust Speed -    
Visibility 10 miles    
Events      
Averages and records for this station are not official NWS values.
T = Trace of Precipitation, MM = Missing Value Source: NWS Daily Summary

Daily Weather History Graph

Daily Weather History Graph

Search for Another Location

Airport:

Trip Planner

Search our weather history database for the weather conditions in past years. The results will help you decide how hot, cold, wet, or windy it might be!

Date:

Astronomy

Nov. 17, 2013 Rise Set
Actual Time 6:51 AM PST 4:56 PM PST
Civil Twilight 6:23 AM PST 5:24 PM PST
Nautical Twilight 5:51 AM PST 5:56 PM PST
Astronomical Twilight 5:20 AM PST 6:27 PM PST
Moon 5:17 PM PST (11/17) 6:50 AM PST (11/17)
Length of Visible Light 11h 01m
Length of Day
10h 05m
Full, 100% of the Moon is Illuminated
Nov 17
Full
Nov 25
Last Quarter
Dec 2
New
Dec 9
First Quarter
Dec 17
Full

Hourly Weather History & Observations

Time (PST) Temp. Windchill Dew Point Humidity Pressure Visibility Wind Dir Wind Speed Gust Speed Precip Events Conditions
12:15 AM 50.0 °F - 46.4 °F 87% 29.95 in 10.0 mi Calm Calm - N/A   Clear
12:35 AM 50.0 °F - 46.4 °F 87% 29.95 in 10.0 mi Calm Calm - N/A   Clear
12:55 AM 48.2 °F - 46.4 °F 93% 29.95 in 10.0 mi Calm Calm - N/A   Clear
1:15 AM 50.0 °F - 46.4 °F 87% 29.95 in 10.0 mi South 3.5 mph - N/A   Clear
1:35 AM 48.2 °F - 44.6 °F 87% 29.96 in 10.0 mi Calm Calm - N/A   Clear
1:55 AM 48.2 °F - 46.4 °F 93% 29.96 in 10.0 mi Calm Calm - N/A   Clear
2:15 AM 48.2 °F - 46.4 °F 93% 29.96 in 10.0 mi Calm Calm - N/A   Clear
2:35 AM 48.2 °F - 46.4 °F 93% 29.96 in 10.0 mi Calm Calm - N/A   Clear
2:55 AM 48.2 °F - 46.4 °F 93% 29.96 in 10.0 mi Calm Calm - N/A   Clear
3:15 AM 48.2 °F - 46.4 °F 93% 29.96 in 10.0 mi Calm Calm - N/A   Clear
3:35 AM 46.4 °F 42.9 °F 44.6 °F 93% 29.96 in 10.0 mi SE 6.9 mph - N/A   Clear
3:55 AM 46.4 °F - 44.6 °F 93% 29.97 in 10.0 mi Calm Calm - N/A   Clear
4:15 AM 46.4 °F - 44.6 °F 93% 29.97 in 10.0 mi Calm Calm - N/A   Clear
4:35 AM 48.2 °F - 46.4 °F 93% 29.98 in 10.0 mi Calm Calm - N/A   Clear
4:55 AM 50.0 °F - 46.4 °F 87% 29.98 in 10.0 mi Calm Calm - N/A   Clear
5:15 AM 48.2 °F - 46.4 °F 93% 29.98 in 10.0 mi Calm Calm - N/A   Clear
5:35 AM 50.0 °F - 44.6 °F 82% 29.99 in 10.0 mi Calm Calm - N/A   Clear
5:55 AM 46.4 °F - 44.6 °F 93% 30.00 in 10.0 mi Calm Calm - N/A   Clear
6:15 AM 48.2 °F - 44.6 °F 87% 30.01 in 10.0 mi Calm Calm - N/A   Clear
6:35 AM 50.0 °F - 44.6 °F 82% 30.01 in 10.0 mi SW 5.8 mph - N/A   Clear
6:47 AM 50.0 °F - 44.6 °F 82% 30.01 in 10.0 mi Calm Calm - N/A   Scattered Clouds
6:55 AM 48.2 °F - 44.6 °F 87% 30.02 in 10.0 mi Calm Calm - N/A   Clear
7:47 AM 48.2 °F - 44.6 °F 87% 30.04 in 10.0 mi SSE 4.6 mph - N/A   Partly Cloudy
8:47 AM 53.6 °F - 46.4 °F 77% 30.07 in 10.0 mi SSE 4.6 mph - N/A   Scattered Clouds
9:55 AM 55.4 °F - 48.2 °F 77% 30.08 in 10.0 mi East 4.6 mph - N/A   Scattered Clouds
10:50 AM 55.4 °F - 46.4 °F 72% 30.09 in 10.0 mi ENE 3.5 mph - N/A   Partly Cloudy
12:47 PM 59.0 °F - 42.8 °F 55% 30.06 in 10.0 mi West 10.4 mph - N/A   Partly Cloudy
2:47 PM 59.0 °F - 44.6 °F 59% 30.04 in 10.0 mi West 10.4 mph - N/A   Partly Cloudy
3:47 PM 57.2 °F - 41.0 °F 55% 30.04 in 10.0 mi NW 6.9 mph - N/A   Scattered Clouds
4:53 PM 55.4 °F - 44.6 °F 67% 30.04 in 10.0 mi NW 5.8 mph - N/A   Scattered Clouds
5:50 PM 55.4 °F - 44.6 °F 67% 30.05 in 10.0 mi WNW 5.8 mph - N/A   Scattered Clouds
6:50 PM 53.6 °F - 44.6 °F 72% 30.06 in 10.0 mi Calm Calm - N/A   Scattered Clouds
7:55 PM 53.6 °F - 44.6 °F 72% 30.07 in 10.0 mi Calm Calm - N/A   Scattered Clouds
8:47 PM 51.8 °F - 44.6 °F 76% 30.08 in 10.0 mi Calm Calm - N/A   Scattered Clouds
9:15 PM 50.0 °F - 42.8 °F 76% 30.09 in 10.0 mi Calm Calm - N/A   Clear
9:35 PM 50.0 °F - 44.6 °F 82% 30.09 in 10.0 mi Calm Calm - N/A   Clear
9:55 PM 50.0 °F - 44.6 °F 82% 30.09 in 10.0 mi Calm Calm - N/A   Clear
10:15 PM 50.0 °F - 44.6 °F 82% 30.09 in 10.0 mi Calm Calm - N/A   Clear
10:35 PM 50.0 °F - 44.6 °F 82% 30.10 in 10.0 mi Calm Calm - N/A   Clear
10:55 PM 50.0 °F - 42.8 °F 76% 30.10 in 10.0 mi Calm Calm - N/A   Clear
11:15 PM 50.0 °F - 42.8 °F 76% 30.10 in 10.0 mi Calm Calm - N/A   Clear
11:35 PM 48.2 °F - 42.8 °F 82% 30.10 in 10.0 mi Calm Calm - N/A   Clear
11:55 PM 48.2 °F - 42.8 °F 82% 30.11 in 10.0 mi Calm Calm - N/A   Clear